Regional Weather Roundup
Issued by NWS Cleveland, OH

Home | Current Version | Previous Version | Graphics & Text | Print | Product List | Glossary On
Versions: 1 2 3 4 5 6 7 8 9 10 11 12 13 14 15 16 17 18 19 20 21 22 23 24 25 26 27 28 29 30 31 32 33 34 35 36 37 38 39 40 41 42 43 44 45 46 47 48 49 50
000
ASUS41 KCLE 211200
RWRCLE
OHIO REGIONAL WEATHER ROUNDUP
NATIONAL WEATHER SERVICE WILMINGTON, OH
800 AM EDT TUE APR 21 2015

NOTE: "FAIR" INDICATES FEW OR NO CLOUDS BELOW 12,000 FEET WITH NO
SIGNIFICANT WEATHER AND/OR OBSTRUCTIONS TO VISIBILITY.

OHZ001>008-015>018-024>027-034-035-043-044-211300-
   NORTHWEST OHIO

CITY           SKY/WX    TMP DP  RH WIND       PRES   REMARKS
DEFIANCE       SUNNY     44  34  67 SW15G24   29.65S
FINDLAY        SUNNY     46  33  60 SW16G24   29.66S
TOLEDO EXPRESS MOSUNNY   42  34  73 SW14G25   29.62F
TOLEDO EXEC    MOSUNNY   43  34  70 SW16      29.64S
LIMA           SUNNY     45  33  63 SW17G24   29.69R
$$

OHZ009>014-019>023-028>033-038-089-211300-
   NORTHEAST OHIO

CITY           SKY/WX    TMP DP  RH WIND       PRES   REMARKS
CLE-HOPKINS    MOSUNNY   45  33  63 S12       29.69F
CLE-LAKEFRONT  MOSUNNY   47  33  58 SW18      29.67S
CUY CO. ARPT   MOSUNNY   46  36  66 SW14      29.68S
LORAIN-ELYRIA  SUNNY     44  34  67 SW16      29.67F
ASHTABULA      MOSUNNY   43  34  70 SW10      29.68S
AKRON-CANTON   PTSUNNY   44  33  65 SW12      29.72R
WOOSTER        NOT AVBL
MANSFIELD      PTSUNNY   42  33  70 S21       29.69F
YOUNGSTOWN     PTSUNNY   44  34  67 SW14G20   29.70R
$$

OHZ042-051>053-060>062-070>072-077>081-211300-
  SOUTHWEST OHIO

CITY           SKY/WX    TMP DP  RH WIND       PRES   REMARKS
CINC-COVINGTON MOSUNNY   44  34  67 S9        29.80S
CINC-LUNKEN    SUNNY     45  36  70 SW13      29.82S
HAMILTON       SUNNY     48  33  56 SW8       29.79F
DAYTON         NOT AVBL
WRIGHT-PAT AFB NOT AVBL
DAYTON GENERAL SUNNY     44  35  70 S10       29.76S
WILMINGTON     SUNNY     44  34  67 SW14      29.77F
$$

OHZ036-037-039>041-045>050-054>059-063>069-073>076-082>088-211300-
  CENTRAL AND SOUTHEAST OHIO

CITY           SKY/WX    TMP DP  RH WIND       PRES   REMARKS
COLUMBUS       MOSUNNY   44  36  73 S10       29.76S
OSU AIRPORT    SUNNY     44  34  67 SW15      29.75S
BOLTON FIELD   SUNNY     45  36  70 SW14G21   29.76F
RICKENBACK AFB NOT AVBL
NEWARK         SUNNY     45  36  70 SW10      29.76S
MARION         MOSUNNY   43  34  70 SW15      29.71S
LANCASTER      SUNNY     46  34  62 SW13G20   29.78S
ZANESVILLE     SUNNY     44  34  67 SW8       29.78R
NEW PHILLY     PTSUNNY   44  35  70 VRB6      29.76R
$$


USA.gov is the U.S. government's official web portal to all federal, state and local government web resources and services.